Time,TemperatureF,DewpointF,PressureIn,WindDirection,WindDirectionDegrees,WindSpeedMPH,WindSpeedGustMPH,Humidity,HourlyPrecipIn,Conditions,Clouds,dailyrainin,SoftwareType,DateUTC
2013-05-24 00:02:00,62.8,51.7,29.32,North,350,0.0,0.0,67,0.00,,---,0.00,VWS V14.00,2013-05-24 05:02:00,
2013-05-24 00:08:00,62.8,51.7,29.32,NNW,342,2.2,2.2,67,0.00,,---,0.00,VWS V14.00,2013-05-24 05:08:00,
2013-05-24 00:11:00,62.8,51.7,29.32,NNW,338,0.0,2.2,67,0.00,,---,0.00,VWS V14.00,2013-05-24 05:11:00,
2013-05-24 00:14:00,62.8,51.7,29.32,NNW,338,0.0,2.2,67,0.00,,---,0.00,VWS V14.00,2013-05-24 05:14:00,
2013-05-24 00:17:00,62.6,51.5,29.32,NNW,341,0.0,2.2,67,0.00,,---,0.00,VWS V14.00,2013-05-24 05:17:00,
2013-05-24 00:20:00,62.6,51.5,29.32,NNW,342,0.0,2.2,67,0.00,,---,0.00,VWS V14.00,2013-05-24 05:20:00,
2013-05-24 00:23:00,62.6,51.5,29.32,NNW,342,0.0,0.0,67,0.00,,---,0.00,VWS V14.00,2013-05-24 05:23:00,
2013-05-24 00:26:00,62.6,51.5,29.32,SSW,203,0.0,0.0,67,0.00,,---,0.00,VWS V14.00,2013-05-24 05:26:00,
2013-05-24 00:29:00,62.4,51.7,29.32,North,353,0.0,0.0,68,0.00,,---,0.00,VWS V14.00,2013-05-24 05:29:00,
2013-05-24 00:32:00,62.4,51.7,29.32,North,353,0.0,0.0,68,0.00,,---,0.00,VWS V14.00,2013-05-24 05:32:00,
2013-05-24 00:35:00,62.4,51.7,29.32,North,353,0.0,0.0,68,0.00,,---,0.00,VWS V14.00,2013-05-24 05:35:00,
2013-05-24 00:41:00,62.2,51.5,29.32,NW,322,0.0,0.0,68,0.00,,---,0.00,VWS V14.00,2013-05-24 05:41:00,
2013-05-24 00:44:00,62.2,51.9,29.32,NNW,330,2.2,2.2,69,0.00,,---,0.00,VWS V14.00,2013-05-24 05:44:00,
2013-05-24 00:47:00,62.2,51.9,29.32,North,8,0.0,2.2,69,0.00,,---,0.00,VWS V14.00,2013-05-24 05:47:00,
2013-05-24 00:50:00,62.2,51.9,29.32,North,8,0.0,2.2,69,0.00,,---,0.00,VWS V14.00,2013-05-24 05:50:00,
2013-05-24 00:53:00,62.0,51.8,29.32,North,0,0.0,0.0,69,0.00,,---,0.00,VWS V14.00,2013-05-24 05:53:00,
2013-05-24 00:56:00,62.0,51.8,29.32,North,0,0.0,0.0,69,0.00,,---,0.00,VWS V14.00,2013-05-24 05:56:00,
2013-05-24 00:59:00,62.0,51.8,29.35,North,0,0.0,0.0,69,0.00,,---,0.00,VWS V14.00,2013-05-24 05:59:00,
2013-05-24 01:05:00,61.9,51.6,29.35,North,353,0.0,0.0,69,0.00,,---,0.00,VWS V14.00,2013-05-24 06:05:00,
2013-05-24 01:06:00,61.9,51.6,29.35,SSE,162,0.0,0.0,69,0.00,,---,0.00,VWS V14.00,2013-05-24 06:06:00,
2013-05-24 01:08:00,61.9,51.6,29.35,SSE,162,0.0,0.0,69,0.00,,---,0.00,VWS V14.00,2013-05-24 06:08:00,
2013-05-24 01:11:00,61.7,51.8,29.35,SSE,162,0.0,0.0,70,0.00,,---,0.00,VWS V14.00,2013-05-24 06:11:00,
2013-05-24 01:14:00,61.7,51.8,29.35,SW,218,0.0,0.0,70,0.00,,---,0.00,VWS V14.00,2013-05-24 06:14:00,
2013-05-24 01:17:00,61.5,51.6,29.35,North,11,0.0,0.0,70,0.00,,---,0.00,VWS V14.00,2013-05-24 06:17:00,
2013-05-24 01:20:00,61.5,51.6,29.35,North,11,0.0,0.0,70,0.00,,---,0.00,VWS V14.00,2013-05-24 06:20:00,
2013-05-24 01:21:00,61.5,51.6,29.35,North,11,0.0,0.0,70,0.00,,---,0.00,VWS V14.00,2013-05-24 06:21:00,
2013-05-24 01:26:00,61.3,51.5,29.35,East,93,0.0,0.0,70,0.00,,---,0.00,VWS V14.00,2013-05-24 06:26:00,
2013-05-24 01:32:00,61.1,51.3,29.35,NNW,340,0.0,0.0,70,0.00,,---,0.00,VWS V14.00,2013-05-24 06:32:00,
2013-05-24 01:35:00,61.1,51.7,29.35,NW,311,0.0,0.0,71,0.00,,---,0.00,VWS V14.00,2013-05-24 06:35:00,
2013-05-24 01:36:00,61.1,51.7,29.35,NW,311,0.0,0.0,71,0.00,,---,0.00,VWS V14.00,2013-05-24 06:36:00,
2013-05-24 01:38:00,61.1,51.7,29.35,NNW,332,0.0,0.0,71,0.00,,---,0.00,VWS V14.00,2013-05-24 06:38:00,
2013-05-24 01:41:00,61.1,51.7,29.35,NNW,332,0.0,0.0,71,0.00,,---,0.00,VWS V14.00,2013-05-24 06:41:00,
2013-05-24 01:47:00,60.8,51.3,29.35,North,11,2.7,2.7,71,0.00,,---,0.00,VWS V14.00,2013-05-24 06:47:00,
2013-05-24 01:50:00,60.8,51.7,29.35,NNW,339,3.1,3.1,72,0.00,,---,0.00,VWS V14.00,2013-05-24 06:50:00,
2013-05-24 01:51:00,60.8,51.7,29.35,NNW,339,3.1,3.1,72,0.00,,---,0.00,VWS V14.00,2013-05-24 06:51:00,
2013-05-24 01:53:00,60.8,51.7,29.35,NNE,17,0.0,3.1,72,0.00,,---,0.00,VWS V14.00,2013-05-24 06:53:00,
2013-05-24 01:56:00,60.8,51.7,29.35,NNE,17,0.0,3.1,72,0.00,,---,0.00,VWS V14.00,2013-05-24 06:56:00,
2013-05-24 01:59:00,60.8,51.7,29.35,North,10,0.0,3.1,72,0.00,,---,0.00,VWS V14.00,2013-05-24 06:59:00,
2013-05-24 02:05:00,60.8,51.7,29.35,WNW,295,0.0,3.1,72,0.00,,---,0.00,VWS V14.00,2013-05-24 07:05:00,
2013-05-24 02:06:00,60.4,51.7,29.35,WNW,295,0.0,3.1,73,0.00,,---,0.00,VWS V14.00,2013-05-24 07:06:00,
2013-05-24 02:08:00,60.2,51.6,29.35,SSW,207,0.0,0.0,73,0.00,,---,0.00,VWS V14.00,2013-05-24 07:08:00,
2013-05-24 02:11:00,60.2,51.6,29.38,SSW,207,0.0,0.0,73,0.00,,---,0.00,VWS V14.00,2013-05-24 07:11:00,
2013-05-24 02:14:00,60.2,51.6,29.38,SSW,207,0.0,0.0,73,0.00,,---,0.00,VWS V14.00,2013-05-24 07:14:00,
2013-05-24 02:17:00,60.2,51.6,29.38,South,184,0.0,0.0,73,0.00,,---,0.00,VWS V14.00,2013-05-24 07:17:00,
2013-05-24 02:20:00,60.2,51.6,29.38,SSE,167,0.0,0.0,73,0.00,,---,0.00,VWS V14.00,2013-05-24 07:20:00,
2013-05-24 02:23:00,60.1,51.4,29.38,SSW,206,0.0,0.0,73,0.00,,---,0.00,VWS V14.00,2013-05-24 07:23:00,
2013-05-24 02:26:00,60.1,51.4,29.38,West,269,0.0,0.0,73,0.00,,---,0.00,VWS V14.00,2013-05-24 07:26:00,
2013-05-24 02:29:00,59.9,51.2,29.38,West,269,0.0,0.0,73,0.00,,---,0.00,VWS V14.00,2013-05-24 07:29:00,
2013-05-24 02:32:00,59.9,51.2,29.38,West,269,0.0,0.0,73,0.00,,---,0.00,VWS V14.00,2013-05-24 07:32:00,
2013-05-24 02:35:00,59.9,51.2,29.38,WSW,251,0.0,0.0,73,0.00,,---,0.00,VWS V14.00,2013-05-24 07:35:00,
2013-05-24 02:38:00,59.9,51.2,29.38,ESE,106,0.0,0.0,73,0.00,,---,0.00,VWS V14.00,2013-05-24 07:38:00,
2013-05-24 02:41:00,59.7,51.4,29.35,SE,141,0.0,0.0,74,0.00,,---,0.00,VWS V14.00,2013-05-24 07:41:00,
2013-05-24 02:44:00,59.7,51.4,29.35,SE,146,0.0,2.2,74,0.00,,---,0.00,VWS V14.00,2013-05-24 07:44:00,
2013-05-24 02:47:00,59.7,51.4,29.35,SE,146,0.0,2.2,74,0.00,,---,0.00,VWS V14.00,2013-05-24 07:47:00,
2013-05-24 02:50:00,59.7,51.4,29.35,SE,146,0.0,2.2,74,0.00,,---,0.00,VWS V14.00,2013-05-24 07:50:00,
2013-05-24 02:51:00,59.7,51.4,29.35,SE,146,0.0,2.2,74,0.00,,---,0.00,VWS V14.00,2013-05-24 07:51:00,
2013-05-24 02:53:00,59.7,51.4,29.38,SE,146,0.0,0.0,74,0.00,,---,0.00,VWS V14.00,2013-05-24 07:53:00,
2013-05-24 02:56:00,59.7,51.4,29.38,SSW,205,0.0,0.0,74,0.00,,---,0.00,VWS V14.00,2013-05-24 07:56:00,
2013-05-24 02:59:00,59.3,51.4,29.38,NNE,21,0.0,0.0,75,0.00,,---,0.00,VWS V14.00,2013-05-24 07:59:00,
2013-05-24 03:02:00,59.3,51.4,29.38,SE,146,0.0,0.0,75,0.00,,---,0.00,VWS V14.00,2013-05-24 08:02:00,
2013-05-24 03:05:00,59.3,51.4,29.38,South,176,0.0,0.0,75,0.00,,---,0.00,VWS V14.00,2013-05-24 08:05:00,
2013-05-24 03:08:00,59.3,51.4,29.38,South,176,0.0,0.0,75,0.00,,---,0.00,VWS V14.00,2013-05-24 08:08:00,
2013-05-24 03:11:00,59.3,51.4,29.38,North,2,0.0,0.0,75,0.00,,---,0.00,VWS V14.00,2013-05-24 08:11:00,
2013-05-24 03:14:00,59.3,51.4,29.38,ESE,111,0.0,0.0,75,0.00,,---,0.00,VWS V14.00,2013-05-24 08:14:00,
2013-05-24 03:20:00,59.3,51.4,29.38,ESE,111,0.0,0.0,75,0.00,,---,0.00,VWS V14.00,2013-05-24 08:20:00,
2013-05-24 03:21:00,59.3,51.4,29.38,ESE,111,0.0,0.0,75,0.00,,---,0.00,VWS V14.00,2013-05-24 08:21:00,
2013-05-24 03:23:00,59.3,51.4,29.38,ESE,111,0.0,0.0,75,0.00,,---,0.00,VWS V14.00,2013-05-24 08:23:00,
2013-05-24 03:29:00,59.3,51.4,29.38,North,5,0.0,0.0,75,0.00,,---,0.00,VWS V14.00,2013-05-24 08:29:00,
2013-05-24 03:32:00,58.6,51.1,29.38,SE,131,0.0,0.0,76,0.00,,---,0.00,VWS V14.00,2013-05-24 08:32:00,
2013-05-24 03:35:00,58.6,51.1,29.38,WSW,256,3.1,3.1,76,0.00,,---,0.00,VWS V14.00,2013-05-24 08:35:00,
2013-05-24 03:36:00,58.6,51.1,29.38,WSW,256,3.1,3.1,76,0.00,,---,0.00,VWS V14.00,2013-05-24 08:36:00,
2013-05-24 03:41:00,58.6,51.1,29.38,NNW,346,0.0,3.1,76,0.00,,---,0.00,VWS V14.00,2013-05-24 08:41:00,
2013-05-24 03:44:00,58.4,51.3,29.38,WSW,241,0.0,3.1,77,0.00,,---,0.00,VWS V14.00,2013-05-24 08:44:00,
2013-05-24 03:50:00,58.4,51.3,29.38,WSW,241,0.0,3.1,77,0.00,,---,0.00,VWS V14.00,2013-05-24 08:50:00,
2013-05-24 03:56:00,58.3,51.1,29.38,South,191,0.0,0.0,77,0.00,,---,0.00,VWS V14.00,2013-05-24 08:56:00,
2013-05-24 03:59:00,58.3,51.1,29.38,South,191,0.0,0.0,77,0.00,,---,0.00,VWS V14.00,2013-05-24 08:59:00,
2013-05-24 04:05:00,58.3,51.1,29.38,South,170,0.0,0.0,77,0.00,,---,0.00,VWS V14.00,2013-05-24 09:05:00,
2013-05-24 04:06:00,58.3,51.1,29.38,South,170,0.0,0.0,77,0.00,,---,0.00,VWS V14.00,2013-05-24 09:06:00,
2013-05-24 04:08:00,58.3,51.1,29.38,South,170,0.0,0.0,77,0.00,,---,0.00,VWS V14.00,2013-05-24 09:08:00,
2013-05-24 04:11:00,58.3,51.1,29.38,South,170,0.0,0.0,77,0.00,,---,0.00,VWS V14.00,2013-05-24 09:11:00,
2013-05-24 04:17:00,58.3,51.1,29.38,South,170,0.0,0.0,77,0.00,,---,0.00,VWS V14.00,2013-05-24 09:17:00,
2013-05-24 04:20:00,58.3,51.1,29.38,South,170,0.0,0.0,77,0.00,,---,0.00,VWS V14.00,2013-05-24 09:20:00,
2013-05-24 04:23:00,57.9,51.1,29.38,South,170,0.0,0.0,78,0.00,,---,0.00,VWS V14.00,2013-05-24 09:23:00,
2013-05-24 04:29:00,57.9,51.1,29.38,South,170,0.0,0.0,78,0.00,,---,0.00,VWS V14.00,2013-05-24 09:29:00,
2013-05-24 04:35:00,57.5,50.7,29.38,WSW,251,3.1,3.1,78,0.00,,---,0.00,VWS V14.00,2013-05-24 09:35:00,
2013-05-24 04:36:00,57.5,50.7,29.38,WSW,251,3.1,3.1,78,0.00,,---,0.00,VWS V14.00,2013-05-24 09:36:00,
2013-05-24 04:38:00,57.5,50.7,29.38,WSW,251,0.0,3.1,78,0.00,,---,0.00,VWS V14.00,2013-05-24 09:38:00,
2013-05-24 04:41:00,57.5,50.7,29.38,WSW,251,0.0,3.1,78,0.00,,---,0.00,VWS V14.00,2013-05-24 09:41:00,
2013-05-24 04:47:00,57.5,50.7,29.38,North,357,0.0,3.1,78,0.00,,---,0.00,VWS V14.00,2013-05-24 09:47:00,
2013-05-24 04:50:00,57.5,50.7,29.38,North,357,0.0,3.1,78,0.00,,---,0.00,VWS V14.00,2013-05-24 09:50:00,
2013-05-24 04:51:00,57.5,50.7,29.38,North,357,0.0,3.1,78,0.00,,---,0.00,VWS V14.00,2013-05-24 09:51:00,
2013-05-24 04:56:00,57.5,50.7,29.38,North,0,0.0,0.0,78,0.00,,---,0.00,VWS V14.00,2013-05-24 09:56:00,
2013-05-24 04:59:00,57.5,50.7,29.38,North,0,0.0,0.0,78,0.00,,---,0.00,VWS V14.00,2013-05-24 09:59:00,
2013-05-24 05:02:00,57.2,50.7,29.38,North,0,0.0,0.0,79,0.00,,---,0.00,VWS V14.00,2013-05-24 10:02:00,
2013-05-24 05:05:00,57.2,50.7,29.38,North,357,0.0,0.0,79,0.00,,---,0.00,VWS V14.00,2013-05-24 10:05:00,
2013-05-24 05:06:00,57.0,50.9,29.38,North,357,0.0,0.0,80,0.00,,---,0.00,VWS V14.00,2013-05-24 10:06:00,
2013-05-24 05:11:00,57.0,50.9,29.41,North,0,0.0,0.0,80,0.00,,---,0.00,VWS V14.00,2013-05-24 10:11:00,
2013-05-24 05:14:00,56.8,50.7,29.41,North,357,0.0,0.0,80,0.00,,---,0.00,VWS V14.00,2013-05-24 10:14:00,
2013-05-24 05:17:00,56.8,50.7,29.41,North,357,0.0,0.0,80,0.00,,---,0.00,VWS V14.00,2013-05-24 10:17:00,
2013-05-24 05:20:00,56.8,50.7,29.41,North,357,0.0,0.0,80,0.00,,---,0.00,VWS V14.00,2013-05-24 10:20:00,
2013-05-24 05:21:00,56.8,50.7,29.41,North,357,0.0,0.0,80,0.00,,---,0.00,VWS V14.00,2013-05-24 10:21:00,
2013-05-24 05:26:00,56.8,50.7,29.41,North,357,0.0,0.0,80,0.00,,---,0.00,VWS V14.00,2013-05-24 10:26:00,
2013-05-24 05:29:00,56.8,50.7,29.41,North,8,0.0,0.0,80,0.00,,---,0.00,VWS V14.00,2013-05-24 10:29:00,
2013-05-24 05:32:00,56.8,50.7,29.41,North,8,0.0,0.0,80,0.00,,---,0.00,VWS V14.00,2013-05-24 10:32:00,
2013-05-24 05:35:00,56.8,50.7,29.41,North,8,0.0,0.0,80,0.00,,---,0.00,VWS V14.00,2013-05-24 10:35:00,
2013-05-24 05:38:00,56.8,50.7,29.41,North,8,0.0,0.0,80,0.00,,---,0.00,VWS V14.00,2013-05-24 10:38:00,
2013-05-24 05:41:00,56.5,50.7,29.41,North,8,0.0,0.0,81,0.00,,---,0.00,VWS V14.00,2013-05-24 10:41:00,
2013-05-24 05:47:00,56.5,50.7,29.41,North,8,0.0,0.0,81,0.00,,---,0.00,VWS V14.00,2013-05-24 10:47:00,
2013-05-24 05:51:00,56.5,50.7,29.41,North,8,0.0,0.0,81,0.00,,---,0.00,VWS V14.00,2013-05-24 10:51:00,
2013-05-24 05:54:00,56.5,50.7,29.41,North,8,0.0,0.0,81,0.00,,---,0.00,VWS V14.00,2013-05-24 10:54:00,
2013-05-24 05:57:00,56.3,50.5,29.44,North,8,0.0,0.0,81,0.00,,---,0.00,VWS V14.00,2013-05-24 10:57:00,
2013-05-24 06:00:00,56.3,50.5,29.44,North,8,0.0,0.0,81,0.00,,---,0.00,VWS V14.00,2013-05-24 11:00:00,
2013-05-24 06:06:00,56.3,50.5,29.44,North,8,0.0,0.0,81,0.00,,---,0.00,VWS V14.00,2013-05-24 11:06:00,
2013-05-24 06:09:00,56.3,50.5,29.44,North,8,0.0,0.0,81,0.00,,---,0.00,VWS V14.00,2013-05-24 11:09:00,
2013-05-24 06:15:00,56.3,50.5,29.44,North,8,0.0,0.0,81,0.00,,---,0.00,VWS V14.00,2013-05-24 11:15:00,
2013-05-24 06:18:00,56.3,50.5,29.44,North,8,0.0,0.0,81,0.00,,---,0.00,VWS V14.00,2013-05-24 11:18:00,
2013-05-24 06:21:00,56.1,50.7,29.44,North,8,0.0,0.0,82,0.00,,---,0.00,VWS V14.00,2013-05-24 11:21:00,
2013-05-24 06:24:00,56.3,50.9,29.44,North,8,0.0,0.0,82,0.00,,---,0.00,VWS V14.00,2013-05-24 11:24:00,
2013-05-24 06:27:00,56.5,51.0,29.44,North,8,0.0,0.0,82,0.00,,---,0.00,VWS V14.00,2013-05-24 11:27:00,
2013-05-24 06:30:00,56.5,51.0,29.44,North,8,0.0,0.0,82,0.00,,---,0.00,VWS V14.00,2013-05-24 11:30:00,
2013-05-24 06:33:00,56.5,51.0,29.44,North,8,0.0,0.0,82,0.00,,---,0.00,VWS V14.00,2013-05-24 11:33:00,
2013-05-24 06:36:00,56.5,51.0,29.44,North,8,0.0,0.0,82,0.00,,---,0.00,VWS V14.00,2013-05-24 11:36:00,
2013-05-24 06:39:00,56.8,51.1,29.44,North,8,0.0,0.0,81,0.00,,---,0.00,VWS V14.00,2013-05-24 11:39:00,
2013-05-24 06:42:00,56.8,51.1,29.44,North,8,0.0,0.0,81,0.00,,---,0.00,VWS V14.00,2013-05-24 11:42:00,
2013-05-24 06:45:00,56.8,51.1,29.44,North,8,0.0,0.0,81,0.00,,---,0.00,VWS V14.00,2013-05-24 11:45:00,
2013-05-24 06:48:00,56.8,51.1,29.44,North,8,0.0,0.0,81,0.00,,---,0.00,VWS V14.00,2013-05-24 11:48:00,
2013-05-24 06:54:00,57.4,51.2,29.44,NNE,15,0.0,0.0,80,0.00,,---,0.00,VWS V14.00,2013-05-24 11:54:00,
2013-05-24 06:57:00,57.4,51.2,29.44,NNE,17,0.0,0.0,80,0.00,,---,0.00,VWS V14.00,2013-05-24 11:57:00,
2013-05-24 07:00:00,57.5,51.4,29.44,NNE,17,0.0,0.0,80,0.00,,---,0.00,VWS V14.00,2013-05-24 12:00:00,
2013-05-24 07:03:00,57.5,51.4,29.44,South,190,3.1,3.1,80,0.00,,---,0.00,VWS V14.00,2013-05-24 12:03:00,
2013-05-24 07:06:00,57.5,51.4,29.47,South,185,3.1,3.1,80,0.00,,---,0.00,VWS V14.00,2013-05-24 12:06:00,
2013-05-24 07:09:00,57.5,51.4,29.47,South,186,3.1,3.1,80,0.00,,---,0.00,VWS V14.00,2013-05-24 12:09:00,
2013-05-24 07:12:00,57.5,51.4,29.47,South,186,3.1,3.1,80,0.00,,---,0.00,VWS V14.00,2013-05-24 12:12:00,
2013-05-24 07:15:00,57.5,51.4,29.47,SSE,163,0.0,3.1,80,0.00,,---,0.00,VWS V14.00,2013-05-24 12:15:00,
2013-05-24 07:18:00,57.5,51.4,29.47,SSE,163,0.0,3.1,80,0.00,,---,0.00,VWS V14.00,2013-05-24 12:18:00,
2013-05-24 07:24:00,58.3,51.4,29.47,SSE,148,2.2,2.7,78,0.00,,---,0.00,VWS V14.00,2013-05-24 12:24:00,
2013-05-24 07:27:00,58.3,51.4,29.47,South,184,4.9,4.9,78,0.00,,---,0.00,VWS V14.00,2013-05-24 12:27:00,
2013-05-24 07:33:00,58.6,51.4,29.47,WSW,248,2.2,4.9,77,0.00,,---,0.00,VWS V14.00,2013-05-24 12:33:00,
2013-05-24 07:36:00,58.6,51.4,29.47,South,171,5.8,5.8,77,0.00,,---,0.00,VWS V14.00,2013-05-24 12:36:00,
2013-05-24 07:39:00,58.6,51.4,29.47,South,171,5.8,5.8,77,0.00,,---,0.00,VWS V14.00,2013-05-24 12:39:00,
2013-05-24 07:45:00,58.6,51.4,29.47,ESE,108,4.0,5.8,77,0.00,,---,0.00,VWS V14.00,2013-05-24 12:45:00,
2013-05-24 07:48:00,58.6,51.4,29.47,SE,146,3.1,5.8,77,0.00,,---,0.00,VWS V14.00,2013-05-24 12:48:00,
2013-05-24 07:51:00,58.6,51.4,29.47,SE,140,0.0,5.8,77,0.00,,---,0.00,VWS V14.00,2013-05-24 12:51:00,
2013-05-24 07:57:00,59.2,50.2,29.47,SE,144,2.7,2.7,72,0.00,,---,0.00,VWS V14.00,2013-05-24 12:57:00,
2013-05-24 08:00:00,59.2,50.2,29.47,ESE,115,2.7,3.1,72,0.00,,---,0.00,VWS V14.00,2013-05-24 13:00:00,
2013-05-24 08:06:00,59.3,50.0,29.47,SSE,162,5.4,5.4,71,0.00,,---,0.12,VWS V14.00,2013-05-24 13:06:00,
2013-05-24 08:12:00,59.3,50.0,29.47,South,186,2.7,6.3,71,0.00,,---,0.00,VWS V14.00,2013-05-24 13:12:00,
2013-05-24 08:15:00,59.3,50.0,29.47,SSE,156,5.8,6.3,71,0.00,,---,0.00,VWS V14.00,2013-05-24 13:15:00,
2013-05-24 08:18:00,59.3,50.0,29.47,SE,144,5.8,6.3,71,0.00,,---,0.00,VWS V14.00,2013-05-24 13:18:00,
2013-05-24 08:21:00,59.3,50.0,29.47,SE,144,5.8,6.3,71,0.00,,---,0.00,VWS V14.00,2013-05-24 13:21:00,
2013-05-24 08:24:00,59.9,48.9,29.47,South,170,4.9,5.8,67,0.00,,---,0.00,VWS V14.00,2013-05-24 13:24:00,
2013-05-24 08:27:00,59.9,48.9,29.47,SSE,148,3.6,5.8,67,0.00,,---,0.00,VWS V14.00,2013-05-24 13:27:00,
2013-05-24 08:30:00,59.9,48.9,29.47,SE,126,5.4,5.8,67,0.00,,---,0.00,VWS V14.00,2013-05-24 13:30:00,
2013-05-24 08:33:00,59.9,48.9,29.47,South,179,4.0,5.8,67,0.00,,---,0.00,VWS V14.00,2013-05-24 13:33:00,
2013-05-24 08:36:00,59.9,48.9,29.47,South,170,4.9,5.8,67,0.00,,---,0.00,VWS V14.00,2013-05-24 13:36:00,
2013-05-24 08:39:00,59.9,48.9,29.47,SE,144,3.1,4.9,67,0.00,,---,0.00,VWS V14.00,2013-05-24 13:39:00,
2013-05-24 08:42:00,59.9,48.9,29.47,South,180,3.6,4.9,67,0.00,,---,0.00,VWS V14.00,2013-05-24 13:42:00,
2013-05-24 08:45:00,59.9,48.9,29.47,WSW,237,4.0,4.9,67,0.00,,---,0.00,VWS V14.00,2013-05-24 13:45:00,
2013-05-24 08:48:00,59.9,48.9,29.47,ENE,76,2.7,4.9,67,0.00,,---,0.00,VWS V14.00,2013-05-24 13:48:00,
2013-05-24 08:51:00,59.9,48.9,29.47,SE,143,5.4,5.4,67,0.00,,---,0.00,VWS V14.00,2013-05-24 13:51:00,
2013-05-24 08:57:00,61.5,47.9,29.47,SE,132,3.6,5.4,61,0.00,,---,0.00,VWS V14.00,2013-05-24 13:57:00,
2013-05-24 09:00:00,61.5,47.9,29.47,SSE,168,8.1,8.1,61,0.00,,---,0.00,VWS V14.00,2013-05-24 14:00:00,
2013-05-24 09:03:00,61.7,47.2,29.47,SSE,166,3.6,8.1,59,0.00,,---,0.00,VWS V14.00,2013-05-24 14:03:00,
2013-05-24 09:06:00,61.7,47.2,29.47,South,172,7.6,8.1,59,0.00,,---,0.00,VWS V14.00,2013-05-24 14:06:00,
2013-05-24 09:09:00,61.7,47.2,29.47,SSW,199,7.6,7.6,59,0.00,,---,0.00,VWS V14.00,2013-05-24 14:09:00,
2013-05-24 09:12:00,61.9,46.9,29.47,South,191,6.3,7.6,58,0.00,,---,0.00,VWS V14.00,2013-05-24 14:12:00,
2013-05-24 09:15:00,61.9,46.9,29.47,East,95,4.0,7.6,58,0.00,,---,0.00,VWS V14.00,2013-05-24 14:15:00,
2013-05-24 09:18:00,61.9,46.9,29.47,SE,146,7.6,7.6,58,0.00,,---,0.00,VWS V14.00,2013-05-24 14:18:00,
2013-05-24 09:21:00,62.4,46.5,29.47,SE,140,5.4,7.6,56,0.00,,---,0.00,VWS V14.00,2013-05-24 14:21:00,
2013-05-24 09:24:00,62.4,46.5,29.47,South,175,4.9,5.4,56,0.00,,---,0.00,VWS V14.00,2013-05-24 14:24:00,
2013-05-24 09:27:00,62.4,46.5,29.47,East,80,4.0,5.4,56,0.00,,---,0.00,VWS V14.00,2013-05-24 14:27:00,
2013-05-24 09:33:00,62.4,46.5,29.47,SW,233,2.7,5.4,56,0.00,,---,0.00,VWS V14.00,2013-05-24 14:33:00,
2013-05-24 09:36:00,63.3,46.4,29.47,SSE,153,5.4,5.4,54,0.00,,---,0.00,VWS V14.00,2013-05-24 14:36:00,
2013-05-24 09:39:00,63.3,46.4,29.47,ENE,68,2.2,6.3,54,0.00,,---,0.00,VWS V14.00,2013-05-24 14:39:00,
2013-05-24 09:45:00,63.8,46.4,29.47,East,86,3.6,6.3,53,0.00,,---,0.00,VWS V14.00,2013-05-24 14:45:00,
2013-05-24 09:51:00,63.8,46.4,29.47,South,169,3.6,6.3,53,0.00,,---,0.00,VWS V14.00,2013-05-24 14:51:00,
2013-05-24 09:57:00,64.6,46.6,29.47,SSE,164,3.1,4.0,52,0.00,,---,0.00,VWS V14.00,2013-05-24 14:57:00,
2013-05-24 10:00:00,64.6,46.6,29.47,SSE,153,2.2,4.0,52,0.00,,---,0.00,VWS V14.00,2013-05-24 15:00:00,
2013-05-24 10:03:00,64.6,46.6,29.47,SSE,168,6.3,6.3,52,0.00,,---,0.00,VWS V14.00,2013-05-24 15:03:00,
2013-05-24 10:06:00,64.6,46.6,29.47,SSE,163,5.8,6.3,52,0.00,,---,0.00,VWS V14.00,2013-05-24 15:06:00,
2013-05-24 10:09:00,64.6,46.6,29.50,SSE,155,8.1,8.1,52,0.00,,---,0.00,VWS V14.00,2013-05-24 15:09:00,
2013-05-24 10:12:00,64.7,45.2,29.50,SSE,147,7.6,8.1,49,0.00,,---,0.00,VWS V14.00,2013-05-24 15:12:00,
2013-05-24 10:15:00,64.9,45.3,29.50,South,186,7.6,8.1,49,0.00,,---,0.00,VWS V14.00,2013-05-24 15:15:00,
2013-05-24 10:18:00,64.9,45.3,29.50,SSE,167,5.4,8.1,49,0.00,,---,0.00,VWS V14.00,2013-05-24 15:18:00,
2013-05-24 10:21:00,64.9,45.3,29.50,SE,138,3.6,8.1,49,0.00,,---,0.00,VWS V14.00,2013-05-24 15:21:00,
2013-05-24 10:27:00,64.9,45.3,29.47,SSE,149,3.1,4.0,49,0.00,,---,0.00,VWS V14.00,2013-05-24 15:27:00,
2013-05-24 10:33:00,64.9,45.3,29.47,SSE,160,3.6,4.9,49,0.00,,---,0.00,VWS V14.00,2013-05-24 15:33:00,
2013-05-24 10:36:00,64.9,45.3,29.47,SSE,160,3.6,4.9,49,0.00,,---,0.00,VWS V14.00,2013-05-24 15:36:00,
2013-05-24 10:42:00,64.9,45.3,29.47,South,177,5.4,5.4,49,0.00,,---,0.00,VWS V14.00,2013-05-24 15:42:00,
2013-05-24 10:45:00,64.9,45.3,29.47,South,169,3.1,5.4,49,0.00,,---,0.00,VWS V14.00,2013-05-24 15:45:00,
2013-05-24 10:48:00,64.9,45.3,29.47,South,169,3.1,5.4,49,0.00,,---,0.00,VWS V14.00,2013-05-24 15:48:00,
2013-05-24 10:51:00,64.9,45.3,29.47,SSE,156,7.6,7.6,49,0.00,,---,0.00,VWS V14.00,2013-05-24 15:51:00,
2013-05-24 10:54:00,66.4,45.0,29.47,South,169,3.6,7.6,46,0.00,,---,0.00,VWS V14.00,2013-05-24 15:54:00,
2013-05-24 10:57:00,66.5,44.6,29.47,SSE,153,3.6,7.6,45,0.00,,---,0.00,VWS V14.00,2013-05-24 15:57:00,
2013-05-24 11:00:00,66.7,44.7,29.47,SE,143,5.4,8.7,45,0.00,,---,0.00,VWS V14.00,2013-05-24 16:00:00,
2013-05-24 11:03:00,66.7,44.7,29.47,East,98,4.0,8.7,45,0.00,,---,0.00,VWS V14.00,2013-05-24 16:03:00,
2013-05-24 11:06:00,66.9,44.9,29.47,South,178,6.3,8.7,45,0.00,,---,0.00,VWS V14.00,2013-05-24 16:06:00,
2013-05-24 11:12:00,67.1,44.5,29.47,SSE,148,5.8,6.3,44,0.00,,---,0.00,VWS V14.00,2013-05-24 16:12:00,
2013-05-24 11:18:00,67.6,45.0,29.47,South,178,6.7,6.7,44,0.00,,---,0.00,VWS V14.00,2013-05-24 16:18:00,
2013-05-24 11:21:00,67.6,45.0,29.47,South,183,2.2,3.6,44,0.00,,---,0.00,VWS V14.00,2013-05-24 16:21:00,
2013-05-24 11:27:00,68.0,45.3,29.47,South,183,2.2,3.6,44,0.00,,---,0.00,VWS V14.00,2013-05-24 16:27:00,
2013-05-24 11:30:00,68.0,45.3,29.47,South,174,7.6,7.6,44,0.00,,---,0.00,VWS V14.00,2013-05-24 16:30:00,
2013-05-24 11:33:00,68.2,44.8,29.47,SSE,164,6.3,7.6,43,0.00,,---,0.00,VWS V14.00,2013-05-24 16:33:00,
2013-05-24 11:36:00,68.2,44.8,29.47,SE,128,6.3,7.6,43,0.00,,---,0.00,VWS V14.00,2013-05-24 16:36:00,
2013-05-24 11:39:00,68.2,44.8,29.47,SE,141,5.4,6.3,43,0.00,,---,0.00,VWS V14.00,2013-05-24 16:39:00,
2013-05-24 11:42:00,68.5,45.2,29.47,SE,141,5.4,6.3,43,0.00,,---,0.00,VWS V14.00,2013-05-24 16:42:00,
2013-05-24 11:45:00,68.5,45.2,29.47,SSW,194,4.9,8.7,43,0.00,,---,0.00,VWS V14.00,2013-05-24 16:45:00,
2013-05-24 11:48:00,68.5,45.2,29.47,South,187,3.1,8.7,43,0.00,,---,0.00,VWS V14.00,2013-05-24 16:48:00,
2013-05-24 11:51:00,68.9,45.5,29.47,SSE,154,7.6,8.7,43,0.00,,---,0.00,VWS V14.00,2013-05-24 16:51:00,
2013-05-24 11:54:00,68.9,45.5,29.47,SSE,161,5.8,8.1,43,0.00,,---,0.00,VWS V14.00,2013-05-24 16:54:00,
2013-05-24 12:00:00,69.2,45.2,29.47,SSW,202,4.0,8.1,42,0.00,,---,0.00,VWS V14.00,2013-05-24 17:00:00,
2013-05-24 12:04:00,69.2,45.2,29.47,SE,135,5.4,8.1,42,0.00,,---,0.00,VWS V14.00,2013-05-24 17:04:00,
2013-05-24 12:06:00,69.2,45.2,29.47,South,179,4.0,8.1,42,0.00,,---,0.00,VWS V14.00,2013-05-24 17:06:00,
2013-05-24 12:07:00,69.2,45.2,29.47,SSE,149,6.3,6.3,42,0.00,,---,0.00,VWS V14.00,2013-05-24 17:07:00,
2013-05-24 12:13:00,69.6,44.9,29.47,South,180,8.1,8.1,41,0.00,,---,0.00,VWS V14.00,2013-05-24 17:13:00,
2013-05-24 12:16:00,69.8,45.0,29.47,South,189,5.8,8.1,41,0.00,,---,0.00,VWS V14.00,2013-05-24 17:16:00,
2013-05-24 12:19:00,69.8,45.0,29.47,South,174,3.1,8.1,41,0.00,,---,0.00,VWS V14.00,2013-05-24 17:19:00,
2013-05-24 12:21:00,69.8,45.0,29.47,SE,145,5.8,8.1,41,0.00,,---,0.00,VWS V14.00,2013-05-24 17:21:00,
2013-05-24 12:22:00,69.8,45.0,29.47,SE,145,5.8,5.8,41,0.00,,---,0.00,VWS V14.00,2013-05-24 17:22:00,
2013-05-24 12:25:00,70.1,46.0,29.47,SE,145,5.8,5.8,42,0.00,,---,0.00,VWS V14.00,2013-05-24 17:25:00,
2013-05-24 12:28:00,70.5,46.3,29.47,SE,145,5.8,5.8,42,0.00,,---,0.00,VWS V14.00,2013-05-24 17:28:00,
2013-05-24 12:31:00,70.5,46.3,29.47,SSE,154,5.4,5.8,42,0.00,,---,0.00,VWS V14.00,2013-05-24 17:31:00,
2013-05-24 12:34:00,70.7,45.8,29.47,SSE,149,5.4,5.8,41,0.00,,---,0.00,VWS V14.00,2013-05-24 17:34:00,
2013-05-24 12:36:00,70.9,46.0,29.47,East,91,2.7,5.8,41,0.00,,---,0.00,VWS V14.00,2013-05-24 17:36:00,
2013-05-24 12:37:00,70.9,46.0,29.47,East,91,2.7,2.7,41,0.00,,---,0.00,VWS V14.00,2013-05-24 17:37:00,
2013-05-24 12:40:00,70.9,46.0,29.47,SSE,150,5.4,5.4,41,0.00,,---,0.00,VWS V14.00,2013-05-24 17:40:00,
2013-05-24 12:46:00,70.9,46.0,29.47,SSE,151,5.4,6.7,41,0.00,,---,0.00,VWS V14.00,2013-05-24 17:46:00,
2013-05-24 12:49:00,70.9,46.0,29.47,SSE,162,7.6,7.6,41,0.00,,---,0.00,VWS V14.00,2013-05-24 17:49:00,
2013-05-24 12:52:00,71.0,46.2,29.47,SSE,162,7.6,7.6,41,0.00,,---,0.00,VWS V14.00,2013-05-24 17:52:00,
2013-05-24 12:55:00,71.0,46.2,29.47,SSE,150,6.3,7.6,41,0.00,,---,0.00,VWS V14.00,2013-05-24 17:55:00,
2013-05-24 12:58:00,71.0,46.2,29.47,SSE,153,3.6,7.6,41,0.00,,---,0.00,VWS V14.00,2013-05-24 17:58:00,
2013-05-24 13:01:00,71.6,46.7,29.47,SSE,153,3.6,7.6,41,0.00,,---,0.00,VWS V14.00,2013-05-24 18:01:00,
2013-05-24 13:04:00,71.8,46.8,29.47,SSE,153,3.6,7.6,41,0.00,,---,0.00,VWS V14.00,2013-05-24 18:04:00,
2013-05-24 13:06:00,71.9,47.0,29.44,SSE,153,3.6,7.6,41,0.00,,---,0.00,VWS V14.00,2013-05-24 18:06:00,
2013-05-24 13:07:00,71.9,47.0,29.44,SSE,153,3.6,3.6,41,0.00,,---,0.00,VWS V14.00,2013-05-24 18:07:00,
2013-05-24 13:10:00,72.1,47.2,29.44,South,170,3.6,3.6,41,0.00,,---,0.00,VWS V14.00,2013-05-24 18:10:00,
2013-05-24 13:13:00,72.1,47.2,29.44,ESE,123,2.7,3.6,41,0.00,,---,0.00,VWS V14.00,2013-05-24 18:13:00,
2013-05-24 13:16:00,72.5,47.5,29.44,WSW,244,3.1,6.7,41,0.00,,---,0.00,VWS V14.00,2013-05-24 18:16:00,
2013-05-24 13:21:00,72.5,47.5,29.44,SSE,159,5.4,6.7,41,0.00,,---,0.00,VWS V14.00,2013-05-24 18:21:00,
2013-05-24 13:22:00,72.5,47.5,29.44,SSE,159,5.4,5.4,41,0.00,,---,0.00,VWS V14.00,2013-05-24 18:22:00,
2013-05-24 13:25:00,72.5,47.5,29.44,SSE,157,5.8,5.8,41,0.00,,---,0.00,VWS V14.00,2013-05-24 18:25:00,
2013-05-24 13:28:00,72.5,46.8,29.44,ESE,120,2.7,8.1,40,0.00,,---,0.00,VWS V14.00,2013-05-24 18:28:00,
2013-05-24 13:31:00,72.7,47.0,29.44,SE,135,5.8,8.1,40,0.00,,---,0.00,VWS V14.00,2013-05-24 18:31:00,
2013-05-24 13:34:00,72.8,47.1,29.44,ESE,112,3.1,8.1,40,0.00,,---,0.00,VWS V14.00,2013-05-24 18:34:00,
2013-05-24 13:36:00,72.8,47.1,29.44,SE,141,3.6,8.1,40,0.00,,---,0.00,VWS V14.00,2013-05-24 18:36:00,
2013-05-24 13:40:00,73.2,46.8,29.44,SSE,163,4.9,4.9,39,0.00,,---,0.00,VWS V14.00,2013-05-24 18:40:00,
2013-05-24 13:43:00,73.4,47.0,29.44,ESE,116,3.1,4.9,39,0.00,,---,0.00,VWS V14.00,2013-05-24 18:43:00,
2013-05-24 13:46:00,73.4,47.0,29.44,ESE,116,3.1,4.9,39,0.00,,---,0.00,VWS V14.00,2013-05-24 18:46:00,
2013-05-24 13:49:00,73.6,47.8,29.44,South,190,4.9,4.9,40,0.00,,---,0.00,VWS V14.00,2013-05-24 18:49:00,
2013-05-24 13:51:00,73.6,47.8,29.44,ESE,106,3.6,4.9,40,0.00,,---,0.00,VWS V14.00,2013-05-24 18:51:00,
2013-05-24 13:52:00,73.9,47.4,29.44,ESE,106,3.6,3.6,39,0.00,,---,0.00,VWS V14.00,2013-05-24 18:52:00,
2013-05-24 13:55:00,73.9,47.4,29.44,ESE,106,3.6,3.6,39,0.00,,---,0.00,VWS V14.00,2013-05-24 18:55:00,
2013-05-24 13:58:00,73.9,46.7,29.44,ESE,106,3.6,3.6,38,0.00,,---,0.00,VWS V14.00,2013-05-24 18:58:00,
2013-05-24 14:01:00,73.9,46.0,29.44,South,169,7.2,7.2,37,0.00,,---,0.00,VWS V14.00,2013-05-24 19:01:00,
2013-05-24 14:04:00,73.9,46.0,29.44,SSE,150,5.4,7.2,37,0.00,,---,0.00,VWS V14.00,2013-05-24 19:04:00,
2013-05-24 14:07:00,74.1,46.2,29.44,South,189,6.7,6.7,37,0.00,,---,0.00,VWS V14.00,2013-05-24 19:07:00,
2013-05-24 14:10:00,74.1,46.2,29.44,SSE,160,4.9,6.7,37,0.00,,---,0.00,VWS V14.00,2013-05-24 19:10:00,
2013-05-24 14:16:00,74.1,46.2,29.44,South,171,4.0,6.7,37,0.00,,---,0.00,VWS V14.00,2013-05-24 19:16:00,
2013-05-24 14:19:00,75.0,47.0,29.44,SSE,168,6.3,6.7,37,0.00,,---,0.00,VWS V14.00,2013-05-24 19:19:00,
2013-05-24 14:21:00,75.0,47.0,29.44,East,88,3.6,6.7,37,0.00,,---,0.00,VWS V14.00,2013-05-24 19:21:00,
2013-05-24 14:28:00,75.2,46.4,29.44,South,176,8.1,8.1,36,0.00,,---,0.00,VWS V14.00,2013-05-24 19:28:00,
2013-05-24 14:31:00,75.4,46.6,29.44,South,176,8.1,8.1,36,0.00,,---,0.00,VWS V14.00,2013-05-24 19:31:00,
2013-05-24 14:34:00,75.5,46.7,29.44,SE,141,3.1,8.1,36,0.00,,---,0.00,VWS V14.00,2013-05-24 19:34:00,
2013-05-24 14:37:00,75.5,46.7,29.44,SSE,149,5.8,5.8,36,0.00,,---,0.00,VWS V14.00,2013-05-24 19:37:00,
2013-05-24 14:40:00,75.9,47.8,29.44,East,91,5.4,5.8,37,0.00,,---,0.00,VWS V14.00,2013-05-24 19:40:00,
2013-05-24 14:43:00,75.9,47.1,29.44,East,91,5.4,5.8,36,0.00,,---,0.00,VWS V14.00,2013-05-24 19:43:00,
2013-05-24 14:49:00,76.3,47.4,29.44,East,87,2.2,5.8,36,0.00,,---,0.00,VWS V14.00,2013-05-24 19:49:00,
2013-05-24 14:51:00,76.3,47.4,29.44,East,87,2.2,5.8,36,0.00,,---,0.00,VWS V14.00,2013-05-24 19:51:00,
2013-05-24 14:55:00,76.3,47.4,29.44,SSE,154,3.1,5.4,36,0.00,,---,0.00,VWS V14.00,2013-05-24 19:55:00,
2013-05-24 14:58:00,76.8,48.6,29.41,South,172,5.4,5.4,37,0.00,,---,0.00,VWS V14.00,2013-05-24 19:58:00,
2013-05-24 15:01:00,77.0,48.0,29.41,SSE,160,4.9,5.4,36,0.00,,---,0.00,VWS V14.00,2013-05-24 20:01:00,
2013-05-24 15:04:00,77.2,48.2,29.41,SSE,160,4.9,5.4,36,0.00,,---,0.00,VWS V14.00,2013-05-24 20:04:00,
2013-05-24 15:07:00,77.3,48.3,29.41,SSE,160,4.9,4.9,36,0.00,,---,0.00,VWS V14.00,2013-05-24 20:07:00,
2013-05-24 15:10:00,77.3,48.3,29.41,ESE,110,2.7,4.9,36,0.00,,---,0.00,VWS V14.00,2013-05-24 20:10:00,
2013-05-24 15:13:00,77.5,48.5,29.41,SE,146,0.0,4.9,36,0.00,,---,0.00,VWS V14.00,2013-05-24 20:13:00,
2013-05-24 15:16:00,77.7,48.7,29.41,SSE,154,5.4,5.4,36,0.00,,---,0.00,VWS V14.00,2013-05-24 20:16:00,
2013-05-24 15:21:00,77.7,48.7,29.41,South,175,5.8,5.8,36,0.00,,---,0.00,VWS V14.00,2013-05-24 20:21:00,
2013-05-24 15:25:00,77.7,47.9,29.41,South,181,5.8,5.8,35,0.00,,---,0.00,VWS V14.00,2013-05-24 20:25:00,
2013-05-24 15:28:00,77.7,47.9,29.41,South,181,5.8,5.8,35,0.00,,---,0.00,VWS V14.00,2013-05-24 20:28:00,
2013-05-24 15:34:00,77.7,47.1,29.41,SSE,166,5.4,7.6,34,0.00,,---,0.00,VWS V14.00,2013-05-24 20:34:00,
2013-05-24 15:37:00,77.7,47.1,29.41,SSE,167,3.6,3.6,34,0.00,,---,0.00,VWS V14.00,2013-05-24 20:37:00,
2013-05-24 15:43:00,77.9,48.1,29.41,SSE,150,3.6,4.0,35,0.00,,---,0.00,VWS V14.00,2013-05-24 20:43:00,
2013-05-24 15:46:00,77.9,48.1,29.41,SSE,150,3.6,4.0,35,0.00,,---,0.00,VWS V14.00,2013-05-24 20:46:00,
2013-05-24 15:49:00,78.4,48.5,29.41,South,183,5.4,5.4,35,0.00,,---,0.00,VWS V14.00,2013-05-24 20:49:00,
2013-05-24 15:51:00,78.4,47.8,29.41,South,183,5.4,5.4,34,0.00,,---,0.00,VWS V14.00,2013-05-24 20:51:00,
2013-05-24 15:55:00,78.4,47.8,29.41,South,173,8.3,8.3,34,0.00,,---,0.00,VWS V14.00,2013-05-24 20:55:00,
2013-05-24 15:58:00,77.5,47.0,29.41,South,173,8.3,8.3,34,0.00,,---,0.00,VWS V14.00,2013-05-24 20:58:00,
2013-05-24 16:04:00,77.3,46.0,29.41,SSE,167,7.6,8.3,33,0.00,,---,0.00,VWS V14.00,2013-05-24 21:04:00,
2013-05-24 16:06:00,77.3,46.0,29.41,SSE,167,7.6,8.3,33,0.00,,---,0.00,VWS V14.00,2013-05-24 21:06:00,
2013-05-24 16:13:00,77.3,46.0,29.41,South,169,3.1,7.6,33,0.00,,---,0.00,VWS V14.00,2013-05-24 21:13:00,
2013-05-24 16:19:00,78.8,48.1,29.41,East,81,3.1,7.6,34,0.00,,---,0.00,VWS V14.00,2013-05-24 21:19:00,
2013-05-24 16:25:00,80.2,47.7,29.38,SSE,165,5.4,8.3,32,0.00,,---,0.00,VWS V14.00,2013-05-24 21:25:00,
2013-05-24 16:28:00,80.6,48.0,29.38,SSE,165,5.4,8.3,32,0.00,,---,0.00,VWS V14.00,2013-05-24 21:28:00,
2013-05-24 16:31:00,80.8,48.2,29.38,South,170,8.1,8.3,32,0.00,,---,0.00,VWS V14.00,2013-05-24 21:31:00,
2013-05-24 16:36:00,81.1,48.5,29.38,SSE,155,8.1,8.3,32,0.00,,---,0.00,VWS V14.00,2013-05-24 21:36:00,
2013-05-24 16:40:00,81.7,49.0,29.38,SSE,155,8.1,8.1,32,0.00,,---,0.00,VWS V14.00,2013-05-24 21:40:00,
2013-05-24 16:43:00,81.7,49.0,29.38,SSE,166,3.6,8.1,32,0.00,,---,0.00,VWS V14.00,2013-05-24 21:43:00,
2013-05-24 16:46:00,83.6,49.8,29.38,SSE,168,5.8,8.1,31,0.00,,---,0.00,VWS V14.00,2013-05-24 21:46:00,
2013-05-24 16:49:00,84.7,49.9,29.38,SSE,168,5.8,8.1,30,0.00,,---,0.00,VWS V14.00,2013-05-24 21:49:00,
2013-05-24 16:52:00,84.7,49.9,29.38,SSE,150,3.6,3.6,30,0.00,,---,0.00,VWS V14.00,2013-05-24 21:52:00,
2013-05-24 16:55:00,84.7,49.9,29.38,SSE,150,3.6,3.6,30,0.00,,---,0.00,VWS V14.00,2013-05-24 21:55:00,
2013-05-24 16:58:00,84.5,49.7,29.38,South,170,6.3,6.3,30,0.00,,---,0.00,VWS V14.00,2013-05-24 21:58:00,
2013-05-24 17:01:00,84.5,49.7,29.38,South,170,6.3,6.3,30,0.00,,---,0.00,VWS V14.00,2013-05-24 22:01:00,
2013-05-24 17:04:00,85.1,50.2,29.38,South,181,6.3,6.3,30,0.00,,---,0.00,VWS V14.00,2013-05-24 22:04:00,
2013-05-24 17:06:00,85.1,50.2,29.38,South,181,6.3,6.3,30,0.00,,---,0.00,VWS V14.00,2013-05-24 22:06:00,
2013-05-24 17:07:00,85.6,50.7,29.38,SSW,209,8.7,8.7,30,0.00,,---,0.00,VWS V14.00,2013-05-24 22:07:00,
2013-05-24 17:10:00,85.3,50.3,29.38,SSW,209,8.7,8.7,30,0.00,,---,0.00,VWS V14.00,2013-05-24 22:10:00,
2013-05-24 17:13:00,85.6,50.7,29.38,SSW,209,8.7,8.7,30,0.00,,---,0.00,VWS V14.00,2013-05-24 22:13:00,
2013-05-24 17:16:00,85.6,50.7,29.38,South,170,5.4,8.7,30,0.00,,---,0.00,VWS V14.00,2013-05-24 22:16:00,
2013-05-24 17:21:00,86.2,50.2,29.38,SSE,153,8.1,8.7,29,0.00,,---,0.00,VWS V14.00,2013-05-24 22:21:00,
2013-05-24 17:25:00,85.6,49.8,29.38,South,177,8.1,8.1,29,0.00,,---,0.00,VWS V14.00,2013-05-24 22:25:00,
2013-05-24 17:28:00,83.1,48.5,29.38,South,177,8.1,8.1,30,0.00,,---,0.00,VWS V14.00,2013-05-24 22:28:00,
2013-05-24 17:34:00,83.3,48.7,29.38,SE,138,3.6,8.1,30,0.00,,---,0.00,VWS V14.00,2013-05-24 22:34:00,
2013-05-24 17:36:00,83.3,48.7,29.38,SE,138,3.6,8.1,30,0.00,,---,0.00,VWS V14.00,2013-05-24 22:36:00,
2013-05-24 17:37:00,82.6,48.0,29.38,South,170,6.3,6.3,30,0.00,,---,0.00,VWS V14.00,2013-05-24 22:37:00,
2013-05-24 17:40:00,82.6,48.0,29.38,South,170,6.3,6.3,30,0.00,,---,0.00,VWS V14.00,2013-05-24 22:40:00,
2013-05-24 17:43:00,81.7,47.2,29.38,South,188,7.6,8.1,30,0.00,,---,0.00,VWS V14.00,2013-05-24 22:43:00,
2013-05-24 17:46:00,79.3,45.2,29.38,South,176,6.3,8.1,30,0.00,,---,0.00,VWS V14.00,2013-05-24 22:46:00,
2013-05-24 17:49:00,78.8,44.8,29.38,South,176,6.3,8.1,30,0.00,,---,0.00,VWS V14.00,2013-05-24 22:49:00,
2013-05-24 17:52:00,77.5,44.5,29.38,East,100,8.7,8.7,31,0.00,,---,0.00,VWS V14.00,2013-05-24 22:52:00,
2013-05-24 17:55:00,77.5,44.5,29.38,SSE,160,12.3,12.3,31,0.00,,---,0.00,VWS V14.00,2013-05-24 22:55:00,
2013-05-24 17:58:00,77.5,44.5,29.35,SE,134,4.0,12.3,31,0.00,,---,0.00,VWS V14.00,2013-05-24 22:58:00,
2013-05-24 18:01:00,76.3,44.3,29.35,South,175,5.4,12.3,32,0.00,,---,0.00,VWS V14.00,2013-05-24 23:01:00,
2013-05-24 18:04:00,76.1,44.1,29.35,South,178,6.7,12.3,32,0.00,,---,0.00,VWS V14.00,2013-05-24 23:04:00,
2013-05-24 18:06:00,75.9,44.0,29.35,South,182,7.6,12.3,32,0.00,,---,0.00,VWS V14.00,2013-05-24 23:06:00,
2013-05-24 18:07:00,75.9,44.0,29.35,SSE,157,5.4,7.6,32,0.00,,---,0.00,VWS V14.00,2013-05-24 23:07:00,
2013-05-24 18:13:00,76.1,43.3,29.35,SSE,147,6.3,7.6,31,0.00,,---,0.00,VWS V14.00,2013-05-24 23:13:00,
2013-05-24 18:16:00,76.1,43.3,29.35,SSE,147,6.3,7.6,31,0.00,,---,0.00,VWS V14.00,2013-05-24 23:16:00,
2013-05-24 18:20:00,76.1,43.3,29.35,South,180,6.3,7.6,31,0.00,,---,0.00,VWS V14.00,2013-05-24 23:20:00,
2013-05-24 18:21:00,75.2,42.5,29.35,SSE,156,3.1,7.6,31,0.00,,---,0.00,VWS V14.00,2013-05-24 23:21:00,
2013-05-24 18:23:00,75.2,42.5,29.35,SSE,158,3.1,3.1,31,0.00,,---,0.00,VWS V14.00,2013-05-24 23:23:00,
2013-05-24 18:29:00,74.6,42.9,29.35,SSE,159,4.0,5.8,32,0.00,,---,0.00,VWS V14.00,2013-05-24 23:29:00,
2013-05-24 18:32:00,74.6,42.9,29.35,SSE,159,4.0,5.8,32,0.00,,---,0.00,VWS V14.00,2013-05-24 23:32:00,
2013-05-24 18:35:00,74.3,42.5,29.35,SSE,155,5.4,5.8,32,0.00,,---,0.00,VWS V14.00,2013-05-24 23:35:00,
2013-05-24 18:38:00,74.3,42.5,29.35,SSE,160,5.4,5.4,32,0.00,,---,0.00,VWS V14.00,2013-05-24 23:38:00,
2013-05-24 18:41:00,73.7,42.9,29.35,SSE,163,4.0,5.4,33,0.00,,---,0.00,VWS V14.00,2013-05-24 23:41:00,
2013-05-24 18:44:00,73.6,42.7,29.35,SSE,151,8.3,8.3,33,0.00,,---,0.00,VWS V14.00,2013-05-24 23:44:00,
2013-05-24 18:47:00,73.4,41.8,29.35,SSE,160,7.6,8.3,32,0.00,,---,0.00,VWS V14.00,2013-05-24 23:47:00,
2013-05-24 18:50:00,73.4,41.8,29.35,SSE,157,8.3,8.3,32,0.00,,---,0.00,VWS V14.00,2013-05-24 23:50:00,
2013-05-24 18:53:00,73.4,41.8,29.35,South,184,7.6,7.6,32,0.00,,---,0.00,VWS V14.00,2013-05-24 23:53:00,
2013-05-24 18:56:00,71.9,41.3,29.35,South,173,7.2,8.3,33,0.00,,---,0.00,VWS V14.00,2013-05-24 23:56:00,
2013-05-24 18:59:00,71.8,41.1,29.35,SSW,212,8.3,8.7,33,0.00,,---,0.00,VWS V14.00,2013-05-24 23:59:00,
2013-05-24 19:02:00,71.8,41.1,29.35,South,170,8.3,8.7,33,0.00,,---,0.00,VWS V14.00,2013-05-25 00:02:00,
2013-05-24 19:05:00,71.0,41.3,29.35,SSE,162,5.8,8.7,34,0.00,,---,0.00,VWS V14.00,2013-05-25 00:05:00,
2013-05-24 19:08:00,71.0,41.3,29.35,SSE,162,5.8,5.8,34,0.00,,---,0.00,VWS V14.00,2013-05-25 00:08:00,
2013-05-24 19:11:00,70.9,41.1,29.35,South,176,3.6,5.8,34,0.00,,---,0.00,VWS V14.00,2013-05-25 00:11:00,
2013-05-24 19:14:00,70.7,41.0,29.35,South,176,3.6,5.8,34,0.00,,---,0.00,VWS V14.00,2013-05-25 00:14:00,
2013-05-24 19:17:00,70.5,41.6,29.35,SSE,150,6.3,6.3,35,0.00,,---,0.00,VWS V14.00,2013-05-25 00:17:00,
2013-05-24 19:20:00,70.3,41.4,29.35,SSE,162,5.4,6.3,35,0.00,,---,0.00,VWS V14.00,2013-05-25 00:20:00,
2013-05-24 19:21:00,70.3,41.4,29.35,SSE,162,5.4,6.3,35,0.00,,---,0.00,VWS V14.00,2013-05-25 00:21:00,
2013-05-24 19:23:00,70.3,41.4,29.35,SSE,162,5.4,5.4,35,0.00,,---,0.00,VWS V14.00,2013-05-25 00:23:00,
2013-05-24 19:26:00,70.1,41.2,29.35,SSE,162,5.4,5.4,35,0.00,,---,0.00,VWS V14.00,2013-05-25 00:26:00,
2013-05-24 19:32:00,69.8,40.9,29.35,SSE,163,4.0,6.3,35,0.00,,---,0.00,VWS V14.00,2013-05-25 00:32:00,
2013-05-24 19:35:00,69.8,40.9,29.35,SSE,164,6.3,6.3,35,0.00,,---,0.00,VWS V14.00,2013-05-25 00:35:00,
2013-05-24 19:41:00,69.1,41.7,29.35,SSE,153,5.8,8.1,37,0.00,,---,0.00,VWS V14.00,2013-05-25 00:41:00,
2013-05-24 19:44:00,68.9,42.2,29.35,SSE,153,5.8,8.1,38,0.00,,---,0.00,VWS V14.00,2013-05-25 00:44:00,
2013-05-24 19:50:00,68.5,41.9,29.35,SSE,159,4.0,8.7,38,0.00,,---,0.00,VWS V14.00,2013-05-25 00:50:00,
2013-05-24 19:51:00,68.5,41.9,29.35,SW,231,5.4,8.7,38,0.00,,---,0.00,VWS V14.00,2013-05-25 00:51:00,
2013-05-24 19:53:00,68.5,41.9,29.35,South,183,6.3,6.3,38,0.00,,---,0.00,VWS V14.00,2013-05-25 00:53:00,
2013-05-24 19:56:00,68.2,41.6,29.35,South,183,6.3,6.3,38,0.00,,---,0.00,VWS V14.00,2013-05-25 00:56:00,
2013-05-24 19:59:00,67.8,41.3,29.35,South,183,6.3,6.3,38,0.00,,---,0.00,VWS V14.00,2013-05-25 00:59:00,
2013-05-24 20:02:00,67.8,41.3,29.35,SSE,155,4.5,6.3,38,0.00,,---,0.00,VWS V14.00,2013-05-25 01:02:00,
2013-05-24 20:05:00,67.6,42.5,29.35,SSE,163,5.4,6.3,40,0.00,,---,0.00,VWS V14.00,2013-05-25 01:05:00,
2013-05-24 20:06:00,67.4,42.3,29.35,SSE,163,5.4,6.3,40,0.00,,---,0.00,VWS V14.00,2013-05-25 01:06:00,
2013-05-24 20:11:00,67.1,42.0,29.35,SSE,163,5.4,5.4,40,0.00,,---,0.00,VWS V14.00,2013-05-25 01:11:00,
2013-05-24 20:17:00,67.1,42.0,29.35,SE,140,4.0,5.4,40,0.00,,---,0.00,VWS V14.00,2013-05-25 01:17:00,
2013-05-24 20:20:00,66.7,41.7,29.35,SSE,166,3.6,5.4,40,0.00,,---,0.00,VWS V14.00,2013-05-25 01:20:00,
2013-05-24 20:21:00,66.7,41.7,29.35,SSE,166,3.6,5.4,40,0.00,,---,0.00,VWS V14.00,2013-05-25 01:21:00,
2013-05-24 20:26:00,66.5,42.1,29.35,South,177,7.6,7.6,41,0.00,,---,0.00,VWS V14.00,2013-05-25 01:26:00,
2013-05-24 20:29:00,66.4,42.0,29.35,SSE,154,4.9,7.6,41,0.00,,---,0.00,VWS V14.00,2013-05-25 01:29:00,
2013-05-24 20:32:00,66.4,42.0,29.35,SSE,154,4.9,7.6,41,0.00,,---,0.00,VWS V14.00,2013-05-25 01:32:00,
2013-05-24 20:35:00,66.0,41.7,29.35,SSE,164,5.8,7.6,41,0.00,,---,0.00,VWS V14.00,2013-05-25 01:35:00,
2013-05-24 20:36:00,66.0,41.7,29.35,SSE,164,5.8,7.6,41,0.00,,---,0.00,VWS V14.00,2013-05-25 01:36:00,
2013-05-24 20:38:00,65.8,42.1,29.35,South,176,6.7,6.7,42,0.00,,---,0.00,VWS V14.00,2013-05-25 01:38:00,
2013-05-24 20:41:00,65.8,42.1,29.35,SSE,163,8.7,8.7,42,0.00,,---,0.00,VWS V14.00,2013-05-25 01:41:00,
2013-05-24 20:44:00,65.6,42.0,29.35,SSE,153,8.3,8.7,42,0.00,,---,0.00,VWS V14.00,2013-05-25 01:44:00,
2013-05-24 20:47:00,65.6,42.0,29.35,South,182,5.8,8.7,42,0.00,,---,0.00,VWS V14.00,2013-05-25 01:47:00,
2013-05-24 20:53:00,65.3,41.6,29.38,South,182,5.8,5.8,42,0.00,,---,0.00,VWS V14.00,2013-05-25 01:53:00,
2013-05-24 20:59:00,65.1,42.1,29.38,SSE,165,4.0,5.8,43,0.00,,---,0.00,VWS V14.00,2013-05-25 01:59:00,
2013-05-24 21:05:00,65.1,42.1,29.38,South,178,5.4,5.8,43,0.00,,---,0.00,VWS V14.00,2013-05-25 02:05:00,
2013-05-24 21:06:00,65.1,42.1,29.38,South,178,5.4,5.8,43,0.00,,---,0.00,VWS V14.00,2013-05-25 02:06:00,
2013-05-24 21:08:00,64.7,41.8,29.38,South,173,5.4,5.4,43,0.00,,---,0.00,VWS V14.00,2013-05-25 02:08:00,
2013-05-24 21:11:00,64.7,41.8,29.38,South,173,5.4,5.4,43,0.00,,---,0.00,VWS V14.00,2013-05-25 02:11:00,
2013-05-24 21:17:00,64.7,41.8,29.38,SE,145,4.0,5.4,43,0.00,,---,0.00,VWS V14.00,2013-05-25 02:17:00,
2013-05-24 21:21:00,64.4,41.4,29.38,SE,145,4.0,5.4,43,0.00,,---,0.00,VWS V14.00,2013-05-25 02:21:00,
2013-05-24 21:23:00,64.2,41.8,29.38,SE,145,4.0,4.0,44,0.00,,---,0.00,VWS V14.00,2013-05-25 02:23:00,
2013-05-24 21:29:00,64.2,41.8,29.38,SSE,150,3.6,4.0,44,0.00,,---,0.00,VWS V14.00,2013-05-25 02:29:00,
2013-05-24 21:32:00,64.0,41.7,29.38,SSE,148,2.7,4.0,44,0.00,,---,0.00,VWS V14.00,2013-05-25 02:32:00,
2013-05-24 21:35:00,64.0,41.7,29.38,SSE,168,3.1,4.0,44,0.00,,---,0.00,VWS V14.00,2013-05-25 02:35:00,
2013-05-24 21:38:00,64.0,42.3,29.38,SSE,168,3.1,3.1,45,0.00,,---,0.00,VWS V14.00,2013-05-25 02:38:00,
2013-05-24 21:41:00,63.8,42.1,29.38,SSE,154,2.7,3.1,45,0.00,,---,0.00,VWS V14.00,2013-05-25 02:41:00,
2013-05-24 21:44:00,63.8,42.1,29.38,SSE,155,2.7,3.1,45,0.00,,---,0.00,VWS V14.00,2013-05-25 02:44:00,
2013-05-24 21:50:00,63.7,42.0,29.38,SSE,166,4.0,5.8,45,0.00,,---,0.00,VWS V14.00,2013-05-25 02:50:00,
2013-05-24 21:51:00,63.7,42.0,29.38,SSE,166,4.0,5.8,45,0.00,,---,0.00,VWS V14.00,2013-05-25 02:51:00,
2013-05-24 21:56:00,63.5,41.8,29.38,SSE,150,3.6,4.0,45,0.00,,---,0.00,VWS V14.00,2013-05-25 02:56:00,
2013-05-24 21:59:00,63.5,41.8,29.38,SSE,157,3.1,4.0,45,0.00,,---,0.00,VWS V14.00,2013-05-25 02:59:00,
2013-05-24 22:02:00,63.3,41.6,29.38,SSW,195,4.0,4.0,45,0.00,,---,0.00,VWS V14.00,2013-05-25 03:02:00,
2013-05-24 22:05:00,63.3,42.2,29.38,SSE,167,4.0,4.0,46,0.00,,---,0.00,VWS V14.00,2013-05-25 03:05:00,
2013-05-24 22:08:00,63.3,42.2,29.38,SE,135,5.8,5.8,46,0.00,,---,0.00,VWS V14.00,2013-05-25 03:08:00,
2013-05-24 22:11:00,63.1,42.0,29.38,SSE,155,3.6,5.8,46,0.00,,---,0.00,VWS V14.00,2013-05-25 03:11:00,
2013-05-24 22:14:00,63.1,42.0,29.38,SSE,154,3.6,5.8,46,0.00,,---,0.00,VWS V14.00,2013-05-25 03:14:00,
2013-05-24 22:20:00,62.9,41.9,29.38,South,170,5.4,5.8,46,0.00,,---,0.00,VWS V14.00,2013-05-25 03:20:00,
2013-05-24 22:21:00,62.8,41.7,29.38,SSE,159,5.4,6.3,46,0.00,,---,0.00,VWS V14.00,2013-05-25 03:21:00,
2013-05-24 22:26:00,62.8,41.7,29.41,South,169,4.9,6.3,46,0.00,,---,0.00,VWS V14.00,2013-05-25 03:26:00,
2013-05-24 22:32:00,62.8,41.7,29.41,SSE,147,2.7,6.3,46,0.00,,---,0.00,VWS V14.00,2013-05-25 03:32:00,
2013-05-24 22:35:00,62.8,41.7,29.41,SSE,150,0.0,6.3,46,0.00,,---,0.00,VWS V14.00,2013-05-25 03:35:00,
2013-05-24 22:36:00,62.8,41.7,29.41,SSE,150,0.0,6.3,46,0.00,,---,0.00,VWS V14.00,2013-05-25 03:36:00,
2013-05-24 22:41:00,62.8,41.7,29.41,South,186,0.0,0.0,46,0.00,,---,0.00,VWS V14.00,2013-05-25 03:41:00,
2013-05-24 22:47:00,62.8,41.7,29.41,South,169,2.2,2.2,46,0.00,,---,0.00,VWS V14.00,2013-05-25 03:47:00,
2013-05-24 22:50:00,62.2,41.8,29.41,South,189,0.0,2.7,47,0.00,,---,0.00,VWS V14.00,2013-05-25 03:50:00,
2013-05-24 22:53:00,62.2,41.8,29.41,South,180,2.2,2.2,47,0.00,,---,0.00,VWS V14.00,2013-05-25 03:53:00,
2013-05-24 22:56:00,62.0,42.1,29.41,SSE,166,0.0,2.7,48,0.00,,---,0.00,VWS V14.00,2013-05-25 03:56:00,
2013-05-24 23:02:00,61.9,42.0,29.41,South,173,3.6,4.0,48,0.00,,---,0.00,VWS V14.00,2013-05-25 04:02:00,
2013-05-24 23:05:00,61.9,42.0,29.41,SSE,166,0.0,4.0,48,0.00,,---,0.00,VWS V14.00,2013-05-25 04:05:00,
2013-05-24 23:06:00,61.9,42.0,29.41,South,179,0.0,4.0,48,0.00,,---,0.00,VWS V14.00,2013-05-25 04:06:00,
2013-05-24 23:08:00,61.5,41.7,29.41,South,179,0.0,0.0,48,0.00,,---,0.00,VWS V14.00,2013-05-25 04:08:00,
2013-05-24 23:11:00,61.5,41.7,29.41,South,172,0.0,0.0,48,0.00,,---,0.00,VWS V14.00,2013-05-25 04:11:00,
2013-05-24 23:17:00,61.3,41.5,29.41,South,172,0.0,0.0,48,0.00,,---,0.00,VWS V14.00,2013-05-25 04:17:00,
2013-05-24 23:20:00,61.3,41.5,29.41,South,172,0.0,0.0,48,0.00,,---,0.00,VWS V14.00,2013-05-25 04:20:00,
2013-05-24 23:21:00,61.3,41.5,29.41,South,172,0.0,0.0,48,0.00,,---,0.00,VWS V14.00,2013-05-25 04:21:00,
2013-05-24 23:23:00,61.3,41.5,29.41,South,189,0.0,0.0,48,0.00,,---,0.00,VWS V14.00,2013-05-25 04:23:00,
2013-05-24 23:26:00,61.3,41.5,29.41,South,171,0.0,0.0,48,0.00,,---,0.00,VWS V14.00,2013-05-25 04:26:00,
2013-05-24 23:29:00,61.3,41.5,29.41,South,172,0.0,0.0,48,0.00,,---,0.00,VWS V14.00,2013-05-25 04:29:00,
2013-05-24 23:32:00,61.3,41.5,29.41,South,172,4.9,4.9,48,0.00,,---,0.00,VWS V14.00,2013-05-25 04:32:00,
2013-05-24 23:35:00,61.3,41.5,29.41,South,175,2.7,4.9,48,0.00,,---,0.00,VWS V14.00,2013-05-25 04:35:00,
2013-05-24 23:42:00,61.3,41.5,29.41,SE,141,2.7,5.4,48,0.00,,---,0.00,VWS V14.00,2013-05-25 04:42:00,
2013-05-24 23:45:00,61.3,41.5,29.41,SSE,153,2.7,5.4,48,0.00,,---,0.00,VWS V14.00,2013-05-25 04:45:00,
2013-05-24 23:48:00,61.3,41.5,29.41,South,180,5.8,5.8,48,0.00,,---,0.00,VWS V14.00,2013-05-25 04:48:00,
2013-05-24 23:51:00,61.3,41.5,29.41,SSE,166,5.8,5.8,48,0.00,,---,0.00,VWS V14.00,2013-05-25 04:51:00,
2013-05-24 23:54:00,61.3,41.5,29.41,SSE,153,5.4,5.8,48,0.00,,---,0.00,VWS V14.00,2013-05-25 04:54:00,